EHI
0 0 0 0 0 0 0 0 0 0 0 0 0 0 1 2 2 5 10 10 5 3 4 6 9 13 16 16 16 17 17 15 11 8 7 6 5 4 4 4 4 3 2 1
0 0 0 0 0 0 0 0 0 0 0 0 0 0 1 2 2 4 8 9 7 6 9 12 14 17 20 20 20 19 18 17 14 10 8 6 4 3 3 3 3 2 1 1
0 0 0 0 0 0 0 0 0 0 0 0 0 0 1 2 3 5 7 8 7 8 14 19 20 21 24 25 24 21 21 21 19 15 10 7 5 3 2 2 3 3 2 1
0 0 0 0 0 0 0 0 0 0 0 0 0 0 1 2 4 6 8 8 6 7 13 20 21 20 23 25 24 23 25 26 26 22 16 12 9 4 3 3 3 4 3 3
0 0 0 0 0 0 0 0 0 0 0 0 0 0 0 2 6 8 9 9 8 6 10 17 19 19 19 22 25 26 28 29 31 28 23 19 13 7 6 6 6 6 5 4
0 0 0 0 0 0 0 0 0 0 0 0 0 0 1 3 7 8 8 9 10 7 9 16 19 20 21 23 26 29 32 34 35 32 27 25 20 14 12 10 9 8 5 3
0 0 0 0 0 0 0 0 0 0 0 0 0 0 2 6 8 7 6 9 10 10 12 18 22 25 28 30 30 34 39 42 40 35 32 30 26 20 16 14 11 8 5 2
0 0 0 0 0 0 0 0 0 0 0 0 0 1 4 7 8 7 7 9 11 13 15 20 24 27 32 34 36 41 48 50 46 40 36 33 28 21 17 15 12 7 4 2
0 0 0 0 0 0 0 0 0 0 0 0 0 1 3 7 9 9 11 13 14 15 16 19 23 26 29 34 39 46 53 56 52 45 38 32 27 23 19 18 16 12 9 7
0 0 0 0 0 0 0 0 0 0 0 0 0 1 3 8 12 15 18 20 20 19 19 21 23 24 26 32 40 47 54 57 54 47 39 32 28 26 24 22 22 20 17 15
0 0 0 0 0 0 0 0 0 0 0 0 0 1 5 10 17 22 25 27 26 24 22 23 24 24 27 33 43 50 53 53 51 47 42 36 31 28 26 25 26 26 23 21
0 0 0 0 0 1 1 0 0 0 0 0 0 2 4 11 20 26 28 28 28 25 22 21 24 28 33 40 47 54 54 50 46 44 43 40 35 31 27 25 26 28 27 24
0 0 0 0 0 1 2 1 0 0 0 0 0 1 3 11 21 28 28 27 26 26 25 24 27 34 41 47 50 52 52 48 44 43 43 41 38 35 29 26 26 28 27 24
0 0 0 0 0 1 2 1 0 0 0 0 0 1 4 10 19 25 25 24 26 29 31 31 33 38 45 50 52 50 47 45 44 43 42 41 41 39 35 31 30 29 26 23
0 0 0 0 0 0 1 1 1 1 1 1 2 2 5 11 16 18 19 21 25 29 32 32 33 37 43 47 49 48 44 42 42 41 39 39 41 41 39 36 35 33 29 26
0 0 0 0 0 0 0 0 1 2 2 2 2 4 8 12 14 15 18 21 24 26 27 27 27 31 35 38 41 42 40 39 40 38 37 37 39 40 39 37 36 36 34 32
0 0 0 0 0 0 0 0 1 1 1 2 3 6 11 13 13 15 18 21 24 25 24 23 22 24 26 29 32 34 36 37 37 35 35 36 37 39 38 36 36 36 36 36
0 0 0 0 0 0 0 0 0 0 1 4 7 10 14 15 14 14 16 18 20 22 22 20 20 20 22 25 28 30 33 35 34 34 34 34 35 37 36 35 35 35 34 34
0 0 0 0 0 0 0 0 0 0 2 6 10 14 17 17 16 15 15 16 17 18 19 19 20 20 22 24 27 30 33 34 33 32 33 34 34 35 34 32 31 30 29 29
0 0 0 0 0 0 0 0 0 0 1 4 9 14 18 19 19 18 17 16 16 17 17 18 19 21 23 24 26 30 31 32 30 30 32 34 33 33 30 27 25 25 25 24
0 0 0 0 0 0 0 0 0 2 3 4 7 12 17 19 20 20 19 17 16 16 15 15 18 21 22 22 24 26 26 27 27 27 29 30 30 29 27 24 22 22 21 22
0 0 0 0 0 0 0 0 1 3 5 5 6 10 16 20 20 21 20 18 16 14 12 12 15 19 20 20 22 23 24 26 28 28 27 27 26 25 25 23 21 20 20 20
0 0 0 0 0 0 0 0 0 2 3 5 6 8 13 16 18 19 19 17 15 13 11 10 12 16 19 21 22 23 25 29 31 29 27 26 25 24 24 23 21 19 18 17
0 0 0 0 0 0 0 0 0 0 1 3 4 5 6 9 11 13 15 14 12 11 10 9 10 14 18 21 22 23 25 28 29 28 27 26 24 23 22 21 18 15 13 12
0 0 0 0 0 0 0 0 1 1 1 1 1 2 2 3 5 7 9 10 10 10 9 7 7 11 16 19 20 20 23 25 25 26 25 23 21 20 18 14 12 10 8 7
0 0 0 0 0 0 0 0 1 2 1 0 0 1 1 2 3 4 6 8 9 9 9 6 5 8 14 18 18 17 20 23 24 24 23 20 19 17 14 10 7 6 5 5
Wind_Speed
10 12 12 10 9 8 8 9 8 4 3 7 8 7 6 9 11 11 12 13 14 14 14 14 14 13 13 12 12 11 11 10 8 7 7 6 6 5 5 5 5 5 5 5
11 14 11 8 7 9 10 11 9 5 4 7 8 8 7 9 12 12 13 14 14 14 14 14 14 14 14 14 13 12 12 11 11 8 6 5 4 5 5 4 4 6 6 5
15 8 6 9 10 11 11 11 9 6 5 8 9 10 8 8 10 11 12 12 13 14 15 16 16 16 15 15 14 12 12 12 11 10 7 6 5 5 5 6 5 6 6 6
11 8 8 11 12 12 12 8 8 8 10 8 9 10 6 8 9 11 12 13 14 14 15 15 16 16 16 15 14 13 12 12 11 11 9 9 7 7 6 5 5 5 6 6
9 8 10 12 12 11 9 5 8 10 11 12 11 12 7 8 9 9 10 12 13 13 14 15 16 16 16 15 14 13 13 12 12 11 10 10 9 7 6 5 5 5 5 6
9 7 9 10 9 9 6 7 8 10 11 15 13 13 11 7 7 7 7 9 11 12 13 14 14 14 14 14 14 13 13 13 12 12 11 11 10 8 7 6 6 6 5 5
11 10 8 8 9 10 11 11 10 12 12 13 9 12 9 4 5 5 5 6 9 11 12 13 15 15 15 15 15 14 14 13 13 13 12 11 10 9 9 8 7 6 5 5
11 10 8 7 10 10 12 15 13 12 12 10 9 12 7 5 4 5 5 4 6 9 11 12 13 14 14 16 16 15 14 13 13 12 11 10 10 8 7 8 7 6 5 4
8 7 5 6 8 11 12 13 13 14 15 14 10 9 9 6 6 5 4 4 5 6 9 11 12 13 14 15 15 15 14 13 12 12 11 10 10 9 8 7 8 6 5 5
8 9 7 6 8 9 11 10 9 12 13 15 13 13 9 7 6 5 5 5 4 5 7 9 10 11 11 12 13 13 13 12 11 11 10 8 9 9 8 7 7 6 6 5
8 10 8 8 9 9 9 11 11 11 12 14 14 9 2 4 5 6 5 4 3 3 4 6 7 8 9 10 11 11 11 11 10 10 9 9 9 8 8 7 7 7 6 6
5 8 8 8 5 7 9 10 12 12 12 13 14 8 0 2 3 4 4 3 2 1 2 4 6 6 7 8 9 10 10 10 9 9 9 9 8 7 8 7 7 7 7 7
4 6 9 9 9 7 9 9 11 12 12 13 15 9 3 2 1 2 2 2 1 1 1 3 4 5 6 7 7 8 8 9 8 8 8 8 8 7 7 7 6 6 7 6
7 7 9 11 7 6 9 10 11 14 13 14 15 12 7 3 3 2 1 0 1 2 2 2 3 4 5 5 6 6 6 6 7 7 7 7 7 7 7 6 6 6 6 6
6 9 9 11 10 11 12 12 12 14 15 16 13 12 8 5 4 4 2 1 1 2 2 2 3 4 5 5 6 6 6 6 6 6 6 6 6 6 6 5 5 5 6 6
5 8 9 12 12 12 13 13 14 14 14 15 15 12 5 4 3 3 2 2 2 2 2 2 3 4 5 5 6 6 6 6 6 6 6 5 5 5 5 5 5 5 6 6
6 7 9 11 9 11 15 12 12 12 11 12 13 7 3 3 3 3 2 2 2 2 2 2 3 3 3 4 5 6 6 6 6 6 6 6 6 6 5 5 5 5 5 5
8 8 7 9 8 14 6 2 6 9 8 8 7 4 4 3 2 2 2 2 2 2 2 1 1 3 3 3 4 5 5 6 6 6 6 5 5 5 5 4 4 4 4 4
9 8 7 8 11 12 6 3 4 7 7 5 4 3 2 2 4 4 2 2 1 1 1 1 1 1 2 3 4 4 5 5 5 5 5 5 5 5 5 5 4 4 4 4
8 9 9 9 11 11 3 1 3 7 8 2 2 2 2 4 6 2 1 2 1 1 1 0 1 1 2 3 4 4 5 5 5 5 5 5 5 5 5 4 4 4 4 4
8 9 11 12 12 9 2 2 4 9 2 1 3 3 4 6 5 1 1 2 1 2 2 2 1 1 1 2 3 4 4 4 4 4 4 4 5 5 5 5 4 4 4 4
8 8 9 9 11 6 4 2 3 4 4 2 3 4 4 3 2 1 2 1 1 2 2 1 1 1 0 1 3 3 3 3 3 3 4 4 4 4 3 4 5 4 5 5
7 6 5 5 4 3 2 2 3 3 3 2 3 3 3 3 2 1 1 1 1 1 1 1 1 1 1 2 3 3 3 2 2 3 3 3 3 3 3 4 5 5 5 6
5 4 7 7 5 4 4 2 2 3 3 3 3 2 3 3 1 1 1 0 1 1 1 1 1 2 2 2 2 3 2 2 3 3 3 3 3 4 3 4 4 4 5 5
6 5 8 9 7 6 4 4 4 4 4 3 3 3 3 2 2 2 1 1 1 1 1 1 2 2 3 3 3 3 2 2 3 3 3 3 4 3 3 4 3 5 4 3
8 9 9 7 5 6 6 5 5 4 4 3 3 3 3 2 2 2 2 2 2 2 2 2 2 3 4 4 3 3 3 4 4 4 3 3 4 3 4 4 4 2 4 3
Wind_Direction
204 226 228 231 243 266 263 263 259 250 224 240 246 251 218 195 206 204 198 196 198 200 193 190 192 194 191 191 192 194 197 189 195 198 200 200 203 209 209 215 209 216 223 218
212 229 236 236 238 242 245 253 256 238 223 253 259 256 235 209 214 212 206 202 202 199 193 190 193 195 195 193 194 195 197 194 198 197 203 209 216 215 214 218 207 220 221 223
232 235 217 222 226 233 239 246 257 263 247 236 256 244 223 204 212 214 215 212 206 202 197 191 194 197 196 194 195 196 197 196 200 197 201 199 204 220 210 210 209 217 221 223
237 231 220 225 231 238 244 243 256 255 254 245 245 261 222 203 205 212 213 212 209 203 201 196 194 196 198 195 192 193 193 197 197 199 208 206 209 215 216 215 211 211 218 226
220 220 223 233 236 241 256 252 250 253 255 258 242 256 244 207 216 214 211 212 212 204 200 198 198 196 197 193 189 189 191 196 195 200 204 210 217 219 217 213 211 221 211 219
242 231 240 245 241 238 233 228 236 242 247 247 245 252 251 224 223 220 209 209 212 208 201 198 198 193 193 191 190 189 189 194 194 198 203 211 218 221 221 218 215 216 211 211
227 221 218 231 228 210 218 230 233 230 229 241 232 244 253 250 243 246 234 218 208 207 203 196 194 192 191 191 190 190 190 194 196 199 204 207 213 216 221 225 222 227 220 213
227 220 206 219 235 235 227 237 244 254 254 245 217 239 243 243 252 251 240 227 210 205 203 198 194 194 193 193 191 191 192 195 195 199 203 206 209 215 219 223 230 222 226 223
252 235 204 227 243 246 236 238 252 259 263 264 247 243 237 225 235 238 228 219 213 206 205 203 197 195 195 195 193 194 192 194 195 197 199 204 208 217 222 218 224 226 221 218
272 259 226 212 225 228 252 248 244 247 252 256 249 242 242 218 235 244 236 226 223 213 208 204 201 197 196 195 192 192 191 193 194 194 196 199 203 210 217 221 220 224 220 220
268 255 232 218 230 236 222 230 239 248 253 258 259 249 274 227 238 251 250 245 237 226 212 199 197 195 191 188 185 186 187 188 192 195 195 199 200 201 206 212 215 216 218 215
270 262 253 238 234 258 247 244 238 243 245 252 266 265 35 246 249 262 262 259 265 266 216 193 186 184 178 177 179 178 181 184 187 189 190 195 196 200 207 210 212 213 214 215
299 262 247 227 209 212 234 239 245 250 251 250 255 251 178 188 249 275 265 247 167 125 151 167 170 174 172 171 172 169 176 177 177 182 185 187 193 199 210 216 214 212 214 217
274 260 262 268 276 253 243 244 246 250 251 251 253 263 251 248 264 267 265 101 112 112 118 144 154 157 157 161 163 163 167 169 171 176 183 185 193 198 207 212 214 216 217 217
274 258 259 270 276 270 261 258 251 251 258 263 264 264 264 265 265 260 247 203 166 137 129 140 144 145 149 154 159 159 161 164 166 168 174 179 186 193 201 206 211 216 223 222
278 274 270 261 260 261 262 257 252 252 254 255 259 259 259 264 255 247 233 210 187 162 146 147 144 147 151 157 161 161 163 169 169 169 172 171 178 185 191 203 209 214 222 228
262 262 265 262 259 259 250 249 249 249 249 253 260 264 257 242 237 239 233 218 193 160 142 149 148 157 166 165 166 164 166 171 173 174 177 176 181 186 191 204 204 211 216 223
252 260 259 263 257 248 251 261 263 257 254 265 269 255 240 240 230 234 223 214 184 158 150 143 164 172 178 170 170 175 172 173 176 178 179 177 185 189 189 197 203 210 214 221
233 241 254 256 250 250 229 228 258 260 252 263 259 247 244 242 226 200 205 223 197 194 169 177 186 199 185 180 177 180 177 179 183 182 183 184 187 192 194 200 208 215 221 226
205 223 244 243 254 256 244 71 286 261 239 218 255 238 242 248 243 203 169 243 217 216 198 210 236 238 196 179 177 190 190 191 196 192 191 190 190 194 199 204 212 217 224 229
205 212 231 243 248 254 18 342 248 240 283 49 252 244 241 260 291 307 248 253 226 219 204 196 210 247 200 175 174 190 196 206 205 197 190 191 195 197 203 211 217 218 229 238
239 234 227 241 247 245 53 275 263 333 344 287 259 251 260 277 281 239 227 229 215 213 193 181 213 276 287 205 187 196 210 222 216 208 205 194 208 219 201 208 223 226 231 234
246 273 277 262 277 7 339 307 317 302 287 290 281 282 265 257 245 245 260 236 189 175 191 226 279 314 298 242 218 223 230 234 221 211 216 208 212 231 227 225 225 222 222 236
222 248 262 260 251 269 274 284 303 311 299 297 299 287 267 266 267 308 321 266 209 201 250 293 301 308 301 278 252 253 255 250 232 220 222 220 222 228 227 236 235 237 235 240
269 242 248 253 267 277 258 277 293 307 303 302 309 298 288 286 289 305 317 330 320 285 288 287 291 299 301 296 282 273 269 258 244 236 240 239 242 240 239 241 252 253 261 261
244 243 248 261 272 275 287 287 286 284 285 285 289 295 297 290 294 301 304 310 298 298 297 284 293 299 300 293 274 275 275 260 252 246 245 253 255 247 247 246 249 231 234 208